Shirley, NY

6:46 PM EDT on May 26, 2017 (GMT -0400)
Brookhaven

Weather History for KHWV - January, 2010

Change the Weather History Date:

Friday, January 1, 2010

  Actual Average (KISP) Record (KISP)
Temperature  
Mean Temperature 32 °F -  
Max Temperature 35 °F 39 °F 60 °F (2005)
Min Temperature 30 °F 25 °F 12 °F (1997)
Degree Days  
Heating Degree Days 32    
Moisture  
Dew Point 29 °F    
Average Humidity 86    
Maximum Humidity 96    
Minimum Humidity 78    
Precipitation  
Precipitation 0.03 in - - ()
Sea Level Pressure  
Sea Level Pressure 29.87 in    
Wind  
Wind Speed 1 mph (NNW)    
Max Wind Speed 6 mph    
Max Gust Speed -    
Visibility 2 miles    
Events Snow    
Averages and records for this station are not official NWS values.
T = Trace of Precipitation, MM = Missing Value Source: NWS Daily Summary

Daily Weather History Graph

Daily Weather History Graph

Search for Another Location

Airport or City:

Trip Planner

Search our weather history database for the weather conditions in past years. The results will help you decide how hot, cold, wet, or windy it might be!

Date:

Astronomy

Jan. 01, 2010 Rise Set
Actual Time 7:15 AM EST 4:34 PM EST
Civil Twilight 6:44 AM EST 5:05 PM EST
Nautical Twilight 6:10 AM EST 5:39 PM EST
Astronomical Twilight 5:37 AM EST 6:13 PM EST
Moon 5:50 PM EST (1/1) 7:59 AM EST (1/1)
Length of Visible Light 10h 20m
Length of Day
9h 18m
Full, 99% of the Moon is Illuminated
Jan 1
Full
Jan 7
Last Quarter
Jan 15
New
Jan 23
First Quarter
Jan 30
Full

Hourly Weather History & Observations

Time (EST) Temp. Windchill Dew Point Humidity Pressure Visibility Wind Dir Wind Speed Gust Speed Precip Events Conditions
12:34 AM 33.8 °F - 28.4 °F 81% 29.99 in 3.0 mi Calm Calm - 0.01 in   Overcast
12:46 AM 33.8 °F - 28.4 °F 81% 29.98 in 3.0 mi Calm Calm - 0.01 in   Overcast
12:56 AM 32.0 °F - 28.9 °F 88% 29.99 in 2.5 mi Calm Calm - 0.02 in   Overcast
1:12 AM 32.0 °F - 28.4 °F 87% 29.99 in 1.8 mi Calm Calm - 0.00 in   Overcast
1:20 AM 32.0 °F - 28.4 °F 87% 29.99 in 2.5 mi Calm Calm - 0.00 in   Overcast
2:56 AM 33.1 °F - 28.9 °F 85% 29.99 in 2.5 mi Calm Calm - 0.00 in   Overcast
3:22 AM 32.0 °F - 28.4 °F 87% 29.97 in 1.5 mi Calm Calm - 0.00 in Snow Light Snow
3:42 AM 32.0 °F - 28.4 °F 87% 29.97 in 1.8 mi Calm Calm - 0.00 in Snow Light Snow
3:54 AM 32.0 °F - 28.4 °F 87% 29.96 in 1.8 mi Calm Calm - 0.00 in Snow Light Snow
3:56 AM 32.0 °F 28.7 °F 28.0 °F 85% 29.96 in 1.8 mi NNE 3.5 mph - 0.00 in Snow Light Snow
4:13 AM 32.0 °F - 28.4 °F 87% 29.95 in 2.0 mi Calm Calm - 0.01 in   Overcast
4:24 AM 32.0 °F - 28.4 °F 87% 29.95 in 2.0 mi Calm Calm - 0.01 in   Overcast
4:56 AM 32.0 °F - 28.9 °F 88% 29.96 in 3.0 mi Calm Calm - 0.01 in   Overcast
5:07 AM 32.0 °F - 28.4 °F 87% 29.95 in 2.5 mi Calm Calm - N/A   Overcast
5:20 AM 32.0 °F - 28.4 °F 87% 29.95 in 2.5 mi Calm Calm - N/A   Overcast
6:08 AM 32.0 °F - 28.4 °F 87% 29.95 in 2.5 mi Calm Calm - N/A   Overcast
6:46 AM 32.0 °F - 28.4 °F 87% 29.95 in 3.0 mi Calm Calm - N/A   Overcast
6:56 AM 32.0 °F - 28.0 °F 85% 29.94 in 3.0 mi Calm Calm - N/A   Overcast
7:04 AM 32.0 °F - 28.4 °F 87% 29.93 in 2.5 mi Calm Calm - N/A   Overcast
7:29 AM 32.0 °F - 28.4 °F 87% 29.94 in 1.5 mi Calm Calm - N/A   Overcast
7:49 AM 32.0 °F - 28.4 °F 87% 29.95 in 1.8 mi Calm Calm - N/A   Overcast
7:56 AM 32.0 °F - 28.9 °F 88% 29.95 in 1.5 mi Calm Calm - N/A   Overcast
8:33 AM 33.8 °F - 30.2 °F 87% 29.94 in 1.2 mi Calm Calm - N/A   Overcast
8:56 AM 32.0 °F - 30.9 °F 96% 29.94 in 1.2 mi Calm Calm - N/A   Overcast
9:19 AM 33.8 °F - 32.0 °F 93% 29.93 in 1.5 mi Calm Calm - N/A   Overcast
9:56 AM 33.1 °F - 30.9 °F 92% 29.92 in 1.5 mi Calm Calm - N/A   Overcast
10:03 AM 33.8 °F - 30.2 °F 87% 29.92 in 3.0 mi Calm Calm - N/A   Overcast
10:32 AM 33.8 °F - 30.2 °F 87% 29.92 in 2.5 mi Calm Calm - N/A   Overcast
10:56 AM 34.0 °F - 30.0 °F 85% 29.92 in 2.0 mi Calm Calm - N/A   Overcast
11:20 AM 33.8 °F - 30.2 °F 87% 29.90 in 1.8 mi Calm Calm - N/A   Overcast
11:56 AM 34.0 °F 29.8 °F 28.9 °F 82% 29.88 in 1.8 mi North 4.6 mph - N/A   Haze
12:04 PM 33.8 °F - 28.4 °F 81% 29.87 in 2.0 mi Calm Calm - N/A   Haze
12:33 PM 33.8 °F - 30.2 °F 87% 29.86 in 2.5 mi Calm Calm - N/A   Overcast
12:56 PM 34.0 °F - 30.9 °F 89% 29.85 in 2.0 mi Calm Calm - N/A   Overcast
1:16 PM 33.8 °F 30.8 °F 30.2 °F 87% 29.84 in 3.0 mi North 3.5 mph - N/A   Overcast
1:56 PM 35.1 °F 32.2 °F 28.9 °F 78% 29.84 in 5.0 mi NNW 3.5 mph - N/A   Haze
2:47 PM 33.8 °F 30.8 °F 28.4 °F 81% 29.84 in 4.0 mi NW 3.5 mph - N/A   Haze
2:56 PM 34.0 °F 28.8 °F 28.9 °F 82% 29.84 in 4.0 mi NNW 5.8 mph - N/A   Haze
3:56 PM 34.0 °F 31.0 °F 28.9 °F 82% 29.82 in 4.0 mi NNW 3.5 mph - N/A   Haze
4:56 PM 30.9 °F - 27.0 °F 85% 29.82 in 2.5 mi Calm Calm - N/A   Partly Cloudy
5:13 PM 30.2 °F - 26.6 °F 86% 29.81 in 1.0 mi Calm Calm - N/A   Partly Cloudy
5:36 PM 30.2 °F - 26.6 °F 86% 29.81 in 0.8 mi Calm Calm - N/A   Scattered Clouds
5:56 PM 30.0 °F - 27.0 °F 88% 29.81 in 1.0 mi Calm Calm - N/A   Overcast
6:42 PM 32.0 °F 28.7 °F 28.4 °F 87% 29.79 in 2.0 mi NW 3.5 mph - N/A   Overcast
6:56 PM 32.0 °F 28.7 °F 28.0 °F 85% 29.79 in 2.5 mi NW 3.5 mph - N/A   Overcast
7:20 PM 32.0 °F 28.7 °F 28.4 °F 87% 29.78 in 3.0 mi NW 3.5 mph - N/A   Overcast
7:56 PM 33.1 °F 28.7 °F 28.9 °F 85% 29.76 in 3.0 mi NW 4.6 mph - N/A   Overcast
8:56 PM 33.1 °F - 28.9 °F 85% 29.75 in 3.0 mi Calm Calm - N/A   Overcast
9:03 PM 33.8 °F - 28.4 °F 81% 29.74 in 2.5 mi Calm Calm - N/A   Overcast
9:10 PM 33.8 °F - 28.4 °F 81% 29.74 in 3.0 mi Calm Calm - N/A   Overcast
9:30 PM 32.0 °F - 28.4 °F 87% 29.73 in 1.8 mi Calm Calm - N/A   Overcast
9:56 PM 32.0 °F - 28.0 °F 85% 29.73 in 1.5 mi Calm Calm - N/A   Overcast
10:05 PM 33.8 °F - 28.4 °F 81% 29.72 in 2.0 mi Calm Calm - N/A   Overcast
10:21 PM 32.0 °F - 28.4 °F 87% 29.71 in 1.5 mi Calm Calm - N/A   Overcast
10:56 PM 33.1 °F 28.7 °F 28.9 °F 85% 29.70 in 2.5 mi NW 4.6 mph - N/A   Overcast
11:03 PM 33.8 °F 29.6 °F 28.4 °F 81% 29.70 in 4.0 mi NW 4.6 mph - N/A   Overcast
11:56 PM 34.0 °F 28.8 °F 28.9 °F 82% 29.68 in 8.0 mi NW 5.8 mph - N/A   Overcast